Starlink 4474

operational
NORAD ID: 53547 Int'l Des: 2022-101 Owner: SPXS Country: US Constellation: starlink
LEOCIRCULAR

Starlink 4474について

説明を読み込み中...

リアルタイム位置

3D地球を読み込み中...

次回通過

高度履歴

Altitude vs Time

uPlot chart will show altitude changes over time

軌道要素

1 53547U 22101W 25353.60790304 .00000063 00000-0 22027-4 0 9993
2 53547 53.2182 63.6236 0001185 89.9505 270.1623 15.08836828184883
Epoch: Dec 19, 2025 • Age: 7 hours

現在のステータス

高度 542.3 km
速度 7.60 km/s
衛星直下点 37.84°N, 155.46°E
打ち上げ日 Aug 19, 2022
運用期間 3.3 years
タイプ internet

技術仕様

分類 Payload
質量 300.00 kg
乾燥質量 290.00 kg
総質量 300.00 kg
長さ 0.20 m
直径 2.80 m
スパン 9.00 m
形状 Box + pan
製造者 SPXS
バスタイプ Starlink
フェーズステータス In Orbit
所有者/国 SPXS/US

大規模コンステレーション

Loading constellations...